This demonstration page uses our WeatherBlox Daily Observations layout. Learn more.

Left ArrowRight Arrow

39.12711, -84.51439

Hourly Observations for October 7, 2016

Temp ( °F °C ) Dew Point ( °F °C ) Humidity (%) Winds ( mph kmh ) Pressure ( in mb ) Visibility ( mi km ) Precip ( " mm )
12:53 am 00:53 Clear 58 14.4 58 14.4 100 100 Calm 30.10 1019 7 11 0.00 0.00
1:53 am 01:53 Clear with Mist and Fog 58 14.4 58 14.4 100 100 E 3 6 30.10 1019 5 8 0.00 0.00
2:53 am 02:53 Clear with Mist and Fog 57 13.9 57 13.9 100 100 Calm 30.11 1020 4 6 0.00 0.00
2:56 am 02:56 Clear with Mist and Fog 57 14 57 14 100 100 Calm 30.12 1020 2 3 0.00 0.00
3:22 am 03:22 Clear with Fog 55 12.8 55 12.8 100 100 NNE 3 6 30.12 1020 1 1 0.00 0.00
3:31 am 03:31 Clear with Mist and Fog 56 13.3 56 13.3 100 100 NNE 3 6 30.12 1020 2 3 0.00 0.00
3:38 am 03:38 Clear with Mist and Fog 57 13.9 57 13.9 100 100 NE 3 6 30.12 1020 5 8 0.00 0.00
3:43 am 03:43 Clear with Mist and Fog 55 12.8 55 12.8 100 100 ENE 3 6 30.12 1020 2 3 0.00 0.00
3:53 am 03:53 Clear with Mist and Fog 55 12.8 55 12.8 100 100 NE 3 6 30.11 1020 3 4 0.00 0.00
4:00 am 04:00 Clear with Mist and Fog 54 12 54 12 100 100 Calm 30.12 1020 4 6 0.00 0.00
4:12 am 04:12 Clear with Mist and Fog 54 12 54 12 100 100 Calm 30.12 1020 2 3 0.00 0.00
4:15 am 04:15 Mostly Cloudy with Mist and Fog 54 12.2 54 12.2 100 100 NE 3 6 30.12 1020 1 2 0.00 0.00
4:21 am 04:21 Mostly Cloudy with Fog 54 12.2 54 12.2 100 100 Calm 30.12 1020 0 0 0.00 0.00
4:33 am 04:33 Mostly Cloudy with Mist and Fog 55 12.8 55 12.8 100 100 Calm 30.12 1020 1 1 0.00 0.00
4:51 am 04:51 Mostly Clear with Mist and Fog 54 12 54 12 100 100 Calm 30.12 1020 1 2 0.00 0.00
4:53 am 04:53 Mostly Clear with Mist and Fog 52 11.1 52 11.1 100 100 Calm 30.11 1020 1 2 0.00 0.00
5:07 am 05:07 Mostly Cloudy with Fog 53 11.7 53 11.7 100 100 Calm 30.12 1020 0 0 0.00 0.00
5:13 am 05:13 Mostly Cloudy with Fog 54 12.2 54 12.2 100 100 Calm 30.12 1020 1 1 0.00 0.00
5:17 am 05:17 Mostly Clear with Mist and Fog 53 11.7 53 11.7 100 100 Calm 30.12 1020 2 3 0.00 0.00
5:39 am 05:39 Clear with Mist and Fog 53 11.7 53 11.7 100 100 Calm 30.12 1020 4 6 0.00 0.00
5:43 am 05:43 Clear with Mist and Fog 54 12.2 54 12.2 100 100 Calm 30.12 1020 2 2 0.00 0.00
5:45 am 05:45 Mostly Cloudy with Mist and Fog 53 11.7 53 11.7 100 100 Calm 30.12 1020 1 1 0.00 0.00
5:53 am 05:53 Mostly Cloudy with Mist and Fog 54 12.2 54 12.2 100 100 Calm 30.12 1020 1 2 0.00 0.00
5:55 am 05:55 Clear with Mist and Fog 54 12.2 54 12.2 100 100 Calm 30.12 1020 2 3 0.00 0.00
6:10 am 06:10 Clear with Mist and Fog 54 12 54 12 100 100 Calm 30.12 1020 5 8 0.00 0.00
6:19 am 06:19 Clear with Mist and Fog 53 11.7 53 11.7 100 100 Calm 30.12 1020 1 1 0.00 0.00
6:37 am 06:37 Clear with Mist and Fog 52 11.1 52 11.1 100 100 Calm 30.12 1020 1 2 0.00 0.00
6:44 am 06:44 Clear with Fog 54 12 54 12 100 100 Calm 30.12 1020 1 1 0.00 0.00
6:46 am 06:46 Mostly Cloudy with Fog 54 12 54 12 100 100 Calm 30.12 1020 0 0 0.00 0.00
6:51 am 06:51 Clear 54 12 54 12 100 100 Calm 30.12 1020 10 16 0.00 0.00
6:53 am 06:53 Clear with Patchy Fog 53 11.7 53 11.7 100 100 Calm 30.11 1020 10 16 0.00 0.00
7:53 am 07:53 Sunny with Patchy Fog 52 11.1 52 11.1 100 100 Calm 30.11 1020 10 16 0.00 0.00
8:53 am 08:53 Sunny 56 13.3 56 13.3 100 100 Calm 30.13 1020 10 16 0.00 0.00
9:53 am 09:53 Sunny 62 16.7 60 15.6 93 93 Calm 30.12 1020 10 16 0.00 0.00
10:53 am 10:53 Sunny 67 19.4 61 16.1 81 81 Calm 30.12 1020 10 16 0.00 0.00
11:53 am 11:53 Sunny 71 21.7 60 15.6 68 68 Calm 30.10 1019 10 16 0.00 0.00
12:53 pm 12:53 Sunny 74 23.3 60 15.6 62 62 Calm 30.09 1019 10 16 0.00 0.00
1:53 pm 13:53 Sunny 76 24.4 60 15.6 58 58 S 6 9 30.06 1018 10 16 0.00 0.00
2:53 pm 14:53 Sunny 78 25.6 62 16.7 58 58 VRB 3 6 30.04 1017 10 16 0.00 0.00
3:53 pm 15:53 Sunny 79 26.1 62 16.7 56 56 Calm 30.02 1017 10 16 0.00 0.00
4:53 pm 16:53 Sunny 79 26.1 62 16.7 56 56 S 5 7 30.01 1016 10 16 0.00 0.00
5:53 pm 17:53 Sunny 78 25.6 63 17.2 60 60 Calm 30.01 1016 10 16 0.00 0.00
6:53 pm 18:53 Sunny 75 23.9 63 17.2 66 66 WNW 8 13 30.03 1017 10 16 0.00 0.00
7:53 pm 19:53 Clear 64 17.8 63 17.2 96 96 Calm 30.04 1017 10 16 0.00 0.00
8:53 pm 20:53 Clear 64 17.8 63 17.2 96 96 Calm 30.03 1017 10 16 0.00 0.00
9:53 pm 21:53 Clear 63 17.2 63 17.2 100 100 Calm 30.04 1017 10 16 0.00 0.00
10:53 pm 22:53 Clear 63 17.2 62 16.7 97 97 Calm 30.05 1018 10 16 0.00 0.00
11:53 pm 23:53 Clear 59 15 59 15 100 100 Calm 30.06 1018 10 16 0.00 0.00

Powered by AerisWeather